Year,Month,Day,Hour,Minute,Value (Times are PST for temperature in C)
2018,05,21,00,00,12.00
2018,05,21,00,01,12.00
2018,05,21,00,02,12.00
2018,05,21,00,03,12.00
2018,05,21,00,04,12.00
2018,05,21,00,05,12.00
2018,05,21,00,06,12.00
2018,05,21,00,07,12.00
2018,05,21,00,08,12.00
2018,05,21,00,09,12.10
2018,05,21,00,10,12.10
2018,05,21,00,11,12.00
2018,05,21,00,12,12.00
2018,05,21,00,13,12.00
2018,05,21,00,14,12.00
2018,05,21,00,15,12.00
2018,05,21,00,16,11.90
2018,05,21,00,17,11.90
2018,05,21,00,18,11.90
2018,05,21,00,19,11.90
2018,05,21,00,20,11.80
2018,05,21,00,21,11.80
2018,05,21,00,22,11.80
2018,05,21,00,23,11.80
2018,05,21,00,24,11.80
2018,05,21,00,25,11.80
2018,05,21,00,26,11.80
2018,05,21,00,27,11.70
2018,05,21,00,28,11.70
2018,05,21,00,29,11.70
2018,05,21,00,30,11.70
2018,05,21,00,31,11.70
2018,05,21,00,32,11.70
2018,05,21,00,33,11.60
2018,05,21,00,34,11.60
2018,05,21,00,35,11.60
2018,05,21,00,36,11.60
2018,05,21,00,37,11.60
2018,05,21,00,38,11.60
2018,05,21,00,39,11.50
2018,05,21,00,40,11.50
2018,05,21,00,41,11.50
2018,05,21,00,42,11.50
2018,05,21,00,43,11.40
2018,05,21,00,44,11.40
2018,05,21,00,45,11.40
2018,05,21,00,46,11.40
2018,05,21,00,47,11.40
2018,05,21,00,48,11.40
2018,05,21,00,49,11.40
2018,05,21,00,50,11.40
2018,05,21,00,51,11.40
2018,05,21,00,52,11.40
2018,05,21,00,53,11.40
2018,05,21,00,54,11.40
2018,05,21,00,55,11.40
2018,05,21,00,56,11.40
2018,05,21,00,57,11.40
2018,05,21,00,58,11.40
2018,05,21,00,59,11.40
2018,05,21,01,00,11.40
2018,05,21,01,01,11.40
2018,05,21,01,02,11.40
2018,05,21,01,03,11.40
2018,05,21,01,04,11.40
2018,05,21,01,05,11.40
2018,05,21,01,06,11.40
2018,05,21,01,07,11.40
2018,05,21,01,08,11.40
2018,05,21,01,09,11.40
2018,05,21,01,10,11.40
2018,05,21,01,11,11.40
2018,05,21,01,12,11.40
2018,05,21,01,13,11.30
2018,05,21,01,14,11.30
2018,05,21,01,15,11.30
2018,05,21,01,16,11.30
2018,05,21,01,17,11.30
2018,05,21,01,18,11.30
2018,05,21,01,19,11.30
2018,05,21,01,20,11.20
2018,05,21,01,21,11.20
2018,05,21,01,22,11.20
2018,05,21,01,23,11.20
2018,05,21,01,24,11.20
2018,05,21,01,25,11.20
2018,05,21,01,26,11.10
2018,05,21,01,27,11.10
2018,05,21,01,28,11.10
2018,05,21,01,29,11.10
2018,05,21,01,30,11.00
2018,05,21,01,31,11.00
2018,05,21,01,32,11.00
2018,05,21,01,33,10.90
2018,05,21,01,34,10.90
2018,05,21,01,35,10.90
2018,05,21,01,36,10.90
2018,05,21,01,37,10.90
2018,05,21,01,38,10.90
2018,05,21,01,39,10.90
2018,05,21,01,40,10.90
2018,05,21,01,41,10.90
2018,05,21,01,42,10.90
2018,05,21,01,43,10.80
2018,05,21,01,44,10.80
2018,05,21,01,45,10.80
2018,05,21,01,46,10.90
2018,05,21,01,47,10.90
2018,05,21,01,48,10.90
2018,05,21,01,49,10.90
2018,05,21,01,50,10.90
2018,05,21,01,51,10.90
2018,05,21,01,52,10.90
2018,05,21,01,53,10.90
2018,05,21,01,54,11.00
2018,05,21,01,55,11.00
2018,05,21,01,56,11.00
2018,05,21,01,57,11.00
2018,05,21,01,58,11.00
2018,05,21,01,59,11.10
2018,05,21,02,00,11.10
2018,05,21,02,01,11.00
2018,05,21,02,02,11.00
2018,05,21,02,03,11.00
2018,05,21,02,04,11.00
2018,05,21,02,05,11.00
2018,05,21,02,06,11.10
2018,05,21,02,07,11.10
2018,05,21,02,08,11.10
2018,05,21,02,09,11.00
2018,05,21,02,10,11.00
2018,05,21,02,11,11.00
2018,05,21,02,12,11.00
2018,05,21,02,13,11.00
2018,05,21,02,14,11.00
2018,05,21,02,15,11.00
2018,05,21,02,16,11.00
2018,05,21,02,17,11.10
2018,05,21,02,18,11.10
2018,05,21,02,19,11.10
2018,05,21,02,20,11.00
2018,05,21,02,21,11.10
2018,05,21,02,22,11.10
2018,05,21,02,23,11.10
2018,05,21,02,24,11.10
2018,05,21,02,25,11.10
2018,05,21,02,26,11.10
2018,05,21,02,27,11.10
2018,05,21,02,28,11.10
2018,05,21,02,29,11.10
2018,05,21,02,30,11.10
2018,05,21,02,31,11.10
2018,05,21,02,32,11.10
2018,05,21,02,33,11.10
2018,05,21,02,34,11.10
2018,05,21,02,35,11.10
2018,05,21,02,36,11.10
2018,05,21,02,37,11.10
2018,05,21,02,38,11.20
2018,05,21,02,39,11.10
2018,05,21,02,40,11.10
2018,05,21,02,41,11.10
2018,05,21,02,42,11.10
2018,05,21,02,43,11.10
2018,05,21,02,44,11.10
2018,05,21,02,45,11.00
2018,05,21,02,46,11.00
2018,05,21,02,47,11.00
2018,05,21,02,48,10.90
2018,05,21,02,49,10.90
2018,05,21,02,50,10.90
2018,05,21,02,51,10.80
2018,05,21,02,52,10.80
2018,05,21,02,53,10.80
2018,05,21,02,54,10.80
2018,05,21,02,55,10.80
2018,05,21,02,56,10.80
2018,05,21,02,57,10.80
2018,05,21,02,58,10.80
2018,05,21,02,59,10.80
2018,05,21,03,00,10.80
2018,05,21,03,01,10.80
2018,05,21,03,02,10.80
2018,05,21,03,03,10.80
2018,05,21,03,04,10.80
2018,05,21,03,05,10.80
2018,05,21,03,06,10.80
2018,05,21,03,07,10.80
2018,05,21,03,08,10.90
2018,05,21,03,09,10.90
2018,05,21,03,10,10.90
2018,05,21,03,11,10.90
2018,05,21,03,12,10.90
2018,05,21,03,13,10.90
2018,05,21,03,14,11.00
2018,05,21,03,15,11.00
2018,05,21,03,16,11.00
2018,05,21,03,17,11.10
2018,05,21,03,18,11.10
2018,05,21,03,19,11.10
2018,05,21,03,20,11.10
2018,05,21,03,21,11.20
2018,05,21,03,22,11.20
2018,05,21,03,23,11.20
2018,05,21,03,24,11.20
2018,05,21,03,25,11.30
2018,05,21,03,26,11.30
2018,05,21,03,27,11.30
2018,05,21,03,28,11.30
2018,05,21,03,29,11.30
2018,05,21,03,30,11.30
2018,05,21,03,31,11.40
2018,05,21,03,32,11.40
2018,05,21,03,33,11.40
2018,05,21,03,34,11.40
2018,05,21,03,35,11.40
2018,05,21,03,36,11.40
2018,05,21,03,37,11.40
2018,05,21,03,38,11.40
2018,05,21,03,39,11.40
2018,05,21,03,40,11.40
2018,05,21,03,41,11.40
2018,05,21,03,42,11.40
2018,05,21,03,43,11.40
2018,05,21,03,44,11.50
2018,05,21,03,45,11.40
2018,05,21,03,46,11.50
2018,05,21,03,47,11.50
2018,05,21,03,48,11.50
2018,05,21,03,49,11.50
2018,05,21,03,50,11.50
2018,05,21,03,51,11.50
2018,05,21,03,52,11.50
2018,05,21,03,53,11.50
2018,05,21,03,54,11.50
2018,05,21,03,55,11.50
2018,05,21,03,56,11.50
2018,05,21,03,57,11.50
2018,05,21,03,58,11.50
2018,05,21,03,59,11.40
2018,05,21,04,00,11.40
2018,05,21,04,01,11.40
2018,05,21,04,02,11.40
2018,05,21,04,03,11.40
2018,05,21,04,04,11.40
2018,05,21,04,05,11.30
2018,05,21,04,06,11.30
2018,05,21,04,07,11.30
2018,05,21,04,08,11.30
2018,05,21,04,09,11.30
2018,05,21,04,10,11.30
2018,05,21,04,11,11.30
2018,05,21,04,12,11.30
2018,05,21,04,13,11.30
2018,05,21,04,14,11.30
2018,05,21,04,15,11.30
2018,05,21,04,16,11.30
2018,05,21,04,17,11.30
2018,05,21,04,18,11.30
2018,05,21,04,19,11.30
2018,05,21,04,20,11.30
2018,05,21,04,21,11.30
2018,05,21,04,22,11.30
2018,05,21,04,23,11.30
2018,05,21,04,24,11.30
2018,05,21,04,25,11.30
2018,05,21,04,26,11.30
2018,05,21,04,27,11.30
2018,05,21,04,28,11.30
2018,05,21,04,29,11.30
2018,05,21,04,30,11.30
2018,05,21,04,31,11.30
2018,05,21,04,32,11.30
2018,05,21,04,33,11.30
2018,05,21,04,34,11.30
2018,05,21,04,35,11.30
2018,05,21,04,36,11.30
2018,05,21,04,37,11.30
2018,05,21,04,38,11.30
2018,05,21,04,39,11.30
2018,05,21,04,40,11.30
2018,05,21,04,41,11.40
2018,05,21,04,42,11.40
2018,05,21,04,43,11.40
2018,05,21,04,44,11.40
2018,05,21,04,45,11.40
2018,05,21,04,46,11.40
2018,05,21,04,47,11.40
2018,05,21,04,48,11.40
2018,05,21,04,49,11.40
2018,05,21,04,50,11.40
2018,05,21,04,51,11.40
2018,05,21,04,52,11.40
2018,05,21,04,53,11.50
2018,05,21,04,54,11.50
2018,05,21,04,55,11.50
2018,05,21,04,56,11.50
2018,05,21,04,57,11.50
2018,05,21,04,58,11.50
2018,05,21,04,59,11.50
2018,05,21,05,00,11.60
2018,05,21,05,01,11.60
2018,05,21,05,02,11.60
2018,05,21,05,03,11.60
2018,05,21,05,04,11.60
2018,05,21,05,05,11.60
2018,05,21,05,06,11.60
2018,05,21,05,07,11.60
2018,05,21,05,08,11.60
2018,05,21,05,09,11.60
2018,05,21,05,10,11.70
2018,05,21,05,11,11.70
2018,05,21,05,12,11.70
2018,05,21,05,13,11.70
2018,05,21,05,14,11.70
2018,05,21,05,15,11.70
2018,05,21,05,16,11.70
2018,05,21,05,17,11.70
2018,05,21,05,18,11.70
2018,05,21,05,19,11.70
2018,05,21,05,20,11.80
2018,05,21,05,21,11.80
2018,05,21,05,22,11.80
2018,05,21,05,23,11.80
2018,05,21,05,24,11.80
2018,05,21,05,25,11.80
2018,05,21,05,26,11.80
2018,05,21,05,27,11.80
2018,05,21,05,28,11.80
2018,05,21,05,29,11.80
2018,05,21,05,30,11.80
2018,05,21,05,31,11.80
2018,05,21,05,32,11.90
2018,05,21,05,33,11.90
2018,05,21,05,34,11.90
2018,05,21,05,35,11.90
2018,05,21,05,36,11.90
2018,05,21,05,37,12.00
2018,05,21,05,38,12.00
2018,05,21,05,39,12.00
2018,05,21,05,40,12.10
2018,05,21,05,41,12.10
2018,05,21,05,42,12.10
2018,05,21,05,43,12.10
2018,05,21,05,44,12.20
2018,05,21,05,45,12.20
2018,05,21,05,46,12.20
2018,05,21,05,47,12.20
2018,05,21,05,48,12.20
2018,05,21,05,49,12.20
2018,05,21,05,50,12.20
2018,05,21,05,51,12.20
2018,05,21,05,52,12.30
2018,05,21,05,53,12.30
2018,05,21,05,54,12.30
2018,05,21,05,55,12.30
2018,05,21,05,56,12.30
2018,05,21,05,57,12.40
2018,05,21,05,58,12.40
2018,05,21,05,59,12.40
2018,05,21,06,00,12.40
2018,05,21,06,01,12.40
2018,05,21,06,02,12.50
2018,05,21,06,03,12.50
2018,05,21,06,04,12.50
2018,05,21,06,05,12.50
2018,05,21,06,06,12.60
2018,05,21,06,07,12.60
2018,05,21,06,08,12.60
2018,05,21,06,09,12.60
2018,05,21,06,10,12.60
2018,05,21,06,11,12.60
2018,05,21,06,12,12.60
2018,05,21,06,13,12.60
2018,05,21,06,14,12.60
2018,05,21,06,15,12.60
2018,05,21,06,16,12.60
2018,05,21,06,17,12.60
2018,05,21,06,18,12.50
2018,05,21,06,19,12.50
2018,05,21,06,20,12.50
2018,05,21,06,21,12.50
2018,05,21,06,22,12.50
2018,05,21,06,23,12.50
2018,05,21,06,24,12.50
2018,05,21,06,25,12.50
2018,05,21,06,26,12.50
2018,05,21,06,27,12.50
2018,05,21,06,28,12.50
2018,05,21,06,29,12.60
2018,05,21,06,30,12.60
2018,05,21,06,31,12.60
2018,05,21,06,32,12.60
2018,05,21,06,33,12.60
2018,05,21,06,34,12.60
2018,05,21,06,35,12.60
2018,05,21,06,36,12.60
2018,05,21,06,37,12.60
2018,05,21,06,38,12.60
2018,05,21,06,39,12.50
2018,05,21,06,40,12.50
2018,05,21,06,41,12.50
2018,05,21,06,42,12.50
2018,05,21,06,43,12.50
2018,05,21,06,44,12.50
2018,05,21,06,45,12.50
2018,05,21,06,46,12.50
2018,05,21,06,47,12.50
2018,05,21,06,48,12.50
2018,05,21,06,49,12.50
2018,05,21,06,50,12.40
2018,05,21,06,51,12.40
2018,05,21,06,52,12.40
2018,05,21,06,53,12.40
2018,05,21,06,54,12.40
2018,05,21,06,55,12.40
2018,05,21,06,56,12.40
2018,05,21,06,57,12.40
2018,05,21,06,58,12.40
2018,05,21,06,59,12.40
2018,05,21,07,00,12.40
2018,05,21,07,01,12.40
2018,05,21,07,02,12.40
2018,05,21,07,03,12.40
2018,05,21,07,04,12.40
2018,05,21,07,05,12.30
2018,05,21,07,06,12.30
2018,05,21,07,07,12.30
2018,05,21,07,08,12.30
2018,05,21,07,09,12.30
2018,05,21,07,10,12.30
2018,05,21,07,11,12.30
2018,05,21,07,12,12.30
2018,05,21,07,13,12.30
2018,05,21,07,14,12.30
2018,05,21,07,15,12.30
2018,05,21,07,16,12.30
2018,05,21,07,17,12.30
2018,05,21,07,18,12.30
2018,05,21,07,19,12.30
2018,05,21,07,20,12.30
2018,05,21,07,21,12.30
2018,05,21,07,22,12.30
2018,05,21,07,23,12.30
2018,05,21,07,24,12.30
2018,05,21,07,25,12.30
2018,05,21,07,26,12.30
2018,05,21,07,27,12.30
2018,05,21,07,28,12.40
2018,05,21,07,29,12.40
2018,05,21,07,30,12.40
2018,05,21,07,31,12.40
2018,05,21,07,32,12.50
2018,05,21,07,33,12.50
2018,05,21,07,34,12.50
2018,05,21,07,35,12.60
2018,05,21,07,36,12.60
2018,05,21,07,37,12.60
2018,05,21,07,38,12.70
2018,05,21,07,39,12.70
2018,05,21,07,40,12.70
2018,05,21,07,41,12.80
2018,05,21,07,42,12.80
2018,05,21,07,43,12.80
2018,05,21,07,44,12.80
2018,05,21,07,45,12.80
2018,05,21,07,46,12.80
2018,05,21,07,47,12.80
2018,05,21,07,48,12.80
2018,05,21,07,49,12.80
2018,05,21,07,50,12.80
2018,05,21,07,51,12.80
2018,05,21,07,52,12.80
2018,05,21,07,53,12.80
2018,05,21,07,54,12.80
2018,05,21,07,55,12.70
2018,05,21,07,56,12.70
2018,05,21,07,57,12.70
2018,05,21,07,58,12.70
2018,05,21,07,59,12.70
2018,05,21,08,00,12.70
2018,05,21,08,01,12.70
2018,05,21,08,02,12.70
2018,05,21,08,03,12.70
2018,05,21,08,04,12.70
2018,05,21,08,05,12.70
2018,05,21,08,06,12.80
2018,05,21,08,07,12.80
2018,05,21,08,08,12.80
2018,05,21,08,09,12.80
2018,05,21,08,10,12.80
2018,05,21,08,11,12.80
2018,05,21,08,12,12.80
2018,05,21,08,13,12.80
2018,05,21,08,14,12.80
2018,05,21,08,15,12.80
2018,05,21,08,16,12.80
2018,05,21,08,17,12.90
2018,05,21,08,18,12.90
2018,05,21,08,19,12.90
2018,05,21,08,20,12.90
2018,05,21,08,21,12.90
2018,05,21,08,22,12.90
2018,05,21,08,23,13.00
2018,05,21,08,24,13.00
2018,05,21,08,25,13.00
2018,05,21,08,26,13.00
2018,05,21,08,27,13.10
2018,05,21,08,28,13.10
2018,05,21,08,29,13.10
2018,05,21,08,30,13.10
2018,05,21,08,31,13.20
2018,05,21,08,32,13.20
2018,05,21,08,33,13.20
2018,05,21,08,34,13.20
2018,05,21,08,35,13.30
2018,05,21,08,36,13.30
2018,05,21,08,37,13.30
2018,05,21,08,38,13.30
2018,05,21,08,39,13.40
2018,05,21,08,40,13.40
2018,05,21,08,41,13.40
2018,05,21,08,42,13.50
2018,05,21,08,43,13.50
2018,05,21,08,44,13.50
2018,05,21,08,45,13.50
2018,05,21,08,46,13.60
2018,05,21,08,47,13.60
2018,05,21,08,48,13.60
2018,05,21,08,49,13.60
2018,05,21,08,50,13.60
2018,05,21,08,51,13.60
2018,05,21,08,52,13.70
2018,05,21,08,53,13.70
2018,05,21,08,54,13.70
2018,05,21,08,55,13.70
2018,05,21,08,56,13.70
2018,05,21,08,57,13.70
2018,05,21,08,58,13.80
2018,05,21,08,59,13.80
2018,05,21,09,00,13.80
2018,05,21,09,01,13.80
2018,05,21,09,02,13.80
2018,05,21,09,03,13.80
2018,05,21,09,04,13.90
2018,05,21,09,05,13.90
2018,05,21,09,06,13.90
2018,05,21,09,07,13.90
2018,05,21,09,08,13.90
2018,05,21,09,09,13.90
2018,05,21,09,10,14.00
2018,05,21,09,11,14.00
2018,05,21,09,12,14.00
2018,05,21,09,13,14.00
2018,05,21,09,14,14.10
2018,05,21,09,15,14.10
2018,05,21,09,16,14.10
2018,05,21,09,17,14.10
2018,05,21,09,18,14.10
2018,05,21,09,19,14.20
2018,05,21,09,20,14.20
2018,05,21,09,21,14.20
2018,05,21,09,22,14.30
2018,05,21,09,23,14.30
2018,05,21,09,24,14.30
2018,05,21,09,25,14.30
2018,05,21,09,26,14.40
2018,05,21,09,27,14.40
2018,05,21,09,28,14.40
2018,05,21,09,29,14.50
2018,05,21,09,30,14.50
2018,05,21,09,31,14.50
2018,05,21,09,32,14.60
2018,05,21,09,33,14.60
2018,05,21,09,34,14.60
2018,05,21,09,35,14.60
2018,05,21,09,36,14.60
2018,05,21,09,37,14.60
2018,05,21,09,38,14.70
2018,05,21,09,39,14.70
2018,05,21,09,40,14.70
2018,05,21,09,41,14.60
2018,05,21,09,42,14.60
2018,05,21,09,43,14.50
2018,05,21,09,44,14.40
2018,05,21,09,45,14.40
2018,05,21,09,46,14.30
2018,05,21,09,47,14.30
2018,05,21,09,48,14.30
2018,05,21,09,49,14.30
2018,05,21,09,50,14.30
2018,05,21,09,51,14.30
2018,05,21,09,52,14.30
2018,05,21,09,53,14.30
2018,05,21,09,54,14.30
2018,05,21,09,55,14.30
2018,05,21,09,56,14.30
2018,05,21,09,57,14.30
2018,05,21,09,58,14.40
2018,05,21,09,59,14.40
2018,05,21,10,00,14.40
2018,05,21,10,01,14.40
2018,05,21,10,02,14.40
2018,05,21,10,03,14.40
2018,05,21,10,04,14.40
2018,05,21,10,05,14.40
2018,05,21,10,06,14.30
2018,05,21,10,07,14.30
2018,05,21,10,08,14.30
2018,05,21,10,09,14.30
2018,05,21,10,10,14.30
2018,05,21,10,11,14.30
2018,05,21,10,12,14.30
2018,05,21,10,13,14.30
2018,05,21,10,14,14.30
2018,05,21,10,15,14.30
2018,05,21,10,16,14.40
2018,05,21,10,17,14.40
2018,05,21,10,18,14.50
2018,05,21,10,19,14.50
2018,05,21,10,20,14.60
2018,05,21,10,21,14.70
2018,05,21,10,22,14.70
2018,05,21,10,23,14.70
2018,05,21,10,24,14.80
2018,05,21,10,25,14.90
2018,05,21,10,26,14.90
2018,05,21,10,27,14.90
2018,05,21,10,28,15.00
2018,05,21,10,29,15.00
2018,05,21,10,30,15.00
2018,05,21,10,31,15.00
2018,05,21,10,32,15.00
2018,05,21,10,33,15.00
2018,05,21,10,34,15.00
2018,05,21,10,35,15.00
2018,05,21,10,36,15.00
2018,05,21,10,37,15.00
2018,05,21,10,38,15.00
2018,05,21,10,39,15.00
2018,05,21,10,40,15.00
2018,05,21,10,41,15.00
2018,05,21,10,42,15.00
2018,05,21,10,43,15.00
2018,05,21,10,44,15.00
2018,05,21,10,45,15.00
2018,05,21,10,46,15.10
2018,05,21,10,47,15.10
2018,05,21,10,48,15.10
2018,05,21,10,49,15.00
2018,05,21,10,50,15.00
2018,05,21,10,51,15.00
2018,05,21,10,52,15.00
2018,05,21,10,53,15.20
2018,05,21,10,54,15.20
2018,05,21,10,55,15.30
2018,05,21,10,56,15.40
2018,05,21,10,57,15.50
2018,05,21,10,58,15.60
2018,05,21,10,59,15.70
2018,05,21,11,00,15.80
2018,05,21,11,01,15.80
2018,05,21,11,02,15.80
2018,05,21,11,03,15.80
2018,05,21,11,04,15.80
2018,05,21,11,05,15.80
2018,05,21,11,06,15.70
2018,05,21,11,07,15.70
2018,05,21,11,08,15.70
2018,05,21,11,09,15.80
2018,05,21,11,10,15.90
2018,05,21,11,11,16.00
2018,05,21,11,12,16.10
2018,05,21,11,13,16.30
2018,05,21,11,14,16.20
2018,05,21,11,15,16.20
2018,05,21,11,16,16.10
2018,05,21,11,17,16.00
2018,05,21,11,18,15.90
2018,05,21,11,19,15.80
2018,05,21,11,20,15.90
2018,05,21,11,21,16.00
2018,05,21,11,22,15.90
2018,05,21,11,23,15.70
2018,05,21,11,24,15.70
2018,05,21,11,25,15.70
2018,05,21,11,26,15.70
2018,05,21,11,27,15.60
2018,05,21,11,28,15.50
2018,05,21,11,29,15.40
2018,05,21,11,30,15.40
2018,05,21,11,31,15.50
2018,05,21,11,32,15.50
2018,05,21,11,33,15.50
2018,05,21,11,34,15.50
2018,05,21,11,35,15.50
2018,05,21,11,36,15.50
2018,05,21,11,37,15.50
2018,05,21,11,38,15.60
2018,05,21,11,39,15.70
2018,05,21,11,40,15.80
2018,05,21,11,41,15.90
2018,05,21,11,42,15.90
2018,05,21,11,43,15.90
2018,05,21,11,44,16.00
2018,05,21,11,45,16.00
2018,05,21,11,46,16.10
2018,05,21,11,47,16.10
2018,05,21,11,48,16.30
2018,05,21,11,49,16.30
2018,05,21,11,50,16.20
2018,05,21,11,51,16.20
2018,05,21,11,52,16.30
2018,05,21,11,53,16.30
2018,05,21,11,54,16.30
2018,05,21,11,55,16.40
2018,05,21,11,56,16.40
2018,05,21,11,57,16.40
2018,05,21,11,58,16.40
2018,05,21,11,59,16.40
2018,05,21,12,00,16.30
2018,05,21,12,01,16.30
2018,05,21,12,02,16.20
2018,05,21,12,03,16.30
2018,05,21,12,04,16.30
2018,05,21,12,05,16.40
2018,05,21,12,06,16.40
2018,05,21,12,07,16.50
2018,05,21,12,08,16.60
2018,05,21,12,09,16.60
2018,05,21,12,10,16.70
2018,05,21,12,11,16.90
2018,05,21,12,12,17.10
2018,05,21,12,13,17.20
2018,05,21,12,14,17.30
2018,05,21,12,15,17.30
2018,05,21,12,16,17.40
2018,05,21,12,17,17.30
2018,05,21,12,18,17.20
2018,05,21,12,19,17.20
2018,05,21,12,20,17.30
2018,05,21,12,21,17.20
2018,05,21,12,22,17.20
2018,05,21,12,23,17.10
2018,05,21,12,24,17.10
2018,05,21,12,25,17.00
2018,05,21,12,26,17.10
2018,05,21,12,27,17.10
2018,05,21,12,28,17.20
2018,05,21,12,29,17.20
2018,05,21,12,30,17.20
2018,05,21,12,31,17.40
2018,05,21,12,32,17.50
2018,05,21,12,33,17.60
2018,05,21,12,34,17.50
2018,05,21,12,35,17.40
2018,05,21,12,36,17.40
2018,05,21,12,37,17.30
2018,05,21,12,38,17.40
2018,05,21,12,39,17.40
2018,05,21,12,40,17.50
2018,05,21,12,41,17.60
2018,05,21,12,42,17.50
2018,05,21,12,43,17.50
2018,05,21,12,44,17.60
2018,05,21,12,45,17.80
2018,05,21,12,46,17.80
2018,05,21,12,47,17.80
2018,05,21,12,48,17.70
2018,05,21,12,49,17.70
2018,05,21,12,50,17.70
2018,05,21,12,51,17.70
2018,05,21,12,52,17.80
2018,05,21,12,53,17.70
2018,05,21,12,54,17.70
2018,05,21,12,55,17.70
2018,05,21,12,56,17.70
2018,05,21,12,57,17.80
2018,05,21,12,58,17.90
2018,05,21,12,59,17.80
2018,05,21,13,00,17.80
2018,05,21,13,01,17.80
2018,05,21,13,02,17.70
2018,05,21,13,03,17.70
2018,05,21,13,04,17.70
2018,05,21,13,05,17.70
2018,05,21,13,06,17.70
2018,05,21,13,07,17.70
2018,05,21,13,08,17.90
2018,05,21,13,09,18.10
2018,05,21,13,10,18.10
2018,05,21,13,11,18.10
2018,05,21,13,12,18.20
2018,05,21,13,13,18.30
2018,05,21,13,14,18.30
2018,05,21,13,15,18.30
2018,05,21,13,16,18.20
2018,05,21,13,17,18.20
2018,05,21,13,18,18.10
2018,05,21,13,19,18.10
2018,05,21,13,20,18.10
2018,05,21,13,21,18.00
2018,05,21,13,22,18.10
2018,05,21,13,23,18.10
2018,05,21,13,24,18.10
2018,05,21,13,25,18.10
2018,05,21,13,26,18.10
2018,05,21,13,27,18.20
2018,05,21,13,28,18.30
2018,05,21,13,29,18.30
2018,05,21,13,30,18.20
2018,05,21,13,31,18.20
2018,05,21,13,32,18.30
2018,05,21,13,33,18.30
2018,05,21,13,34,18.30
2018,05,21,13,35,18.20
2018,05,21,13,36,18.10
2018,05,21,13,37,18.00
2018,05,21,13,38,18.00
2018,05,21,13,39,18.10
2018,05,21,13,40,18.00
2018,05,21,13,41,18.00
2018,05,21,13,42,18.10
2018,05,21,13,43,18.00
2018,05,21,13,44,18.00
2018,05,21,13,45,18.00
2018,05,21,13,46,18.10
2018,05,21,13,47,18.10
2018,05,21,13,48,18.10
2018,05,21,13,49,18.10
2018,05,21,13,50,18.20
2018,05,21,13,51,18.20
2018,05,21,13,52,18.10
2018,05,21,13,53,18.10
2018,05,21,13,54,18.20
2018,05,21,13,55,18.30
2018,05,21,13,56,18.40
2018,05,21,13,57,18.20
2018,05,21,13,58,17.90
2018,05,21,13,59,17.80
2018,05,21,14,00,17.90
2018,05,21,14,01,17.90
2018,05,21,14,02,17.80
2018,05,21,14,03,17.80
2018,05,21,14,04,17.80
2018,05,21,14,05,17.80
2018,05,21,14,06,17.80
2018,05,21,14,07,17.80
2018,05,21,14,08,17.90
2018,05,21,14,09,18.10
2018,05,21,14,10,18.20
2018,05,21,14,11,18.10
2018,05,21,14,12,18.10
2018,05,21,14,13,18.00
2018,05,21,14,14,18.10
2018,05,21,14,15,18.10
2018,05,21,14,16,18.10
2018,05,21,14,17,18.20
2018,05,21,14,18,18.20
2018,05,21,14,19,18.30
2018,05,21,14,20,18.30
2018,05,21,14,21,18.30
2018,05,21,14,22,18.40
2018,05,21,14,23,18.40
2018,05,21,14,24,18.40
2018,05,21,14,25,18.40
2018,05,21,14,26,18.30
2018,05,21,14,27,18.20
2018,05,21,14,28,18.20
2018,05,21,14,29,18.30
2018,05,21,14,30,18.50
2018,05,21,14,31,18.60
2018,05,21,14,32,18.70
2018,05,21,14,33,18.60
2018,05,21,14,34,18.60
2018,05,21,14,35,18.70
2018,05,21,14,36,18.80
2018,05,21,14,37,18.90
2018,05,21,14,38,18.90
2018,05,21,14,39,18.80
2018,05,21,14,40,18.80
2018,05,21,14,41,18.70
2018,05,21,14,42,18.70
2018,05,21,14,43,18.70
2018,05,21,14,44,18.60
2018,05,21,14,45,18.60
2018,05,21,14,46,18.60
2018,05,21,14,47,18.50
2018,05,21,14,48,18.50
2018,05,21,14,49,18.50
2018,05,21,14,50,18.50
2018,05,21,14,51,18.60
2018,05,21,14,52,18.60
2018,05,21,14,53,18.50
2018,05,21,14,54,18.50
2018,05,21,14,55,18.50
2018,05,21,14,56,18.60
2018,05,21,14,57,18.70
2018,05,21,14,58,18.60
2018,05,21,14,59,18.60
2018,05,21,15,00,18.60
2018,05,21,15,01,18.60
2018,05,21,15,02,18.70
2018,05,21,15,03,18.80
2018,05,21,15,04,18.80
2018,05,21,15,05,18.90
2018,05,21,15,06,19.00
2018,05,21,15,07,19.00
2018,05,21,15,08,19.00
2018,05,21,15,09,19.00
2018,05,21,15,10,19.00
2018,05,21,15,11,18.90
2018,05,21,15,12,18.80
2018,05,21,15,13,18.80
2018,05,21,15,14,18.70
2018,05,21,15,15,18.70
2018,05,21,15,16,18.70
2018,05,21,15,17,18.70
2018,05,21,15,18,18.70
2018,05,21,15,19,18.70
2018,05,21,15,20,18.80
2018,05,21,15,21,18.90
2018,05,21,15,22,19.00
2018,05,21,15,23,19.00
2018,05,21,15,24,19.10
2018,05,21,15,25,19.10
2018,05,21,15,26,19.10
2018,05,21,15,27,19.10
2018,05,21,15,28,19.20
2018,05,21,15,29,19.20
2018,05,21,15,30,19.30
2018,05,21,15,31,19.40
2018,05,21,15,32,19.40
2018,05,21,15,33,19.40
2018,05,21,15,34,19.40
2018,05,21,15,35,19.30
2018,05,21,15,36,19.20
2018,05,21,15,37,19.20
2018,05,21,15,38,19.10
2018,05,21,15,39,19.10
2018,05,21,15,40,19.10
2018,05,21,15,41,19.10
2018,05,21,15,42,19.10
2018,05,21,15,43,19.10
2018,05,21,15,44,19.10
2018,05,21,15,45,19.10
2018,05,21,15,46,19.10
2018,05,21,15,47,19.10
2018,05,21,15,48,19.10
2018,05,21,15,49,19.10
2018,05,21,15,50,19.20
2018,05,21,15,51,19.30
2018,05,21,15,52,19.30
2018,05,21,15,53,19.30
2018,05,21,15,54,19.20
2018,05,21,15,55,19.20
2018,05,21,15,56,19.30
2018,05,21,15,57,19.40
2018,05,21,15,58,19.40
2018,05,21,15,59,19.30
2018,05,21,16,00,19.20
2018,05,21,16,01,19.20
2018,05,21,16,02,19.30
2018,05,21,16,03,19.50
2018,05,21,16,04,19.60
2018,05,21,16,05,19.50
2018,05,21,16,06,19.40
2018,05,21,16,07,19.30
2018,05,21,16,08,19.40
2018,05,21,16,09,19.40
2018,05,21,16,10,19.40
2018,05,21,16,11,19.40
2018,05,21,16,12,19.50
2018,05,21,16,13,19.50
2018,05,21,16,14,19.50
2018,05,21,16,15,19.50
2018,05,21,16,16,19.50
2018,05,21,16,17,19.40
2018,05,21,16,18,19.40
2018,05,21,16,19,19.40
2018,05,21,16,20,19.40
2018,05,21,16,21,19.40
2018,05,21,16,22,19.40
2018,05,21,16,23,19.40
2018,05,21,16,24,19.40
2018,05,21,16,25,19.30
2018,05,21,16,26,19.30
2018,05,21,16,27,19.40
2018,05,21,16,28,19.50
2018,05,21,16,29,19.50
2018,05,21,16,30,19.50
2018,05,21,16,31,19.50
2018,05,21,16,32,19.50
2018,05,21,16,33,19.40
2018,05,21,16,34,19.40
2018,05,21,16,35,19.40
2018,05,21,16,36,19.40
2018,05,21,16,37,19.30
2018,05,21,16,38,19.30
2018,05,21,16,39,19.40
2018,05,21,16,40,19.40
2018,05,21,16,41,19.40
2018,05,21,16,42,19.40
2018,05,21,16,43,19.50
2018,05,21,16,44,19.50
2018,05,21,16,45,19.50
2018,05,21,16,46,19.40
2018,05,21,16,47,19.40
2018,05,21,16,48,19.50
2018,05,21,16,49,19.50
2018,05,21,16,50,19.60
2018,05,21,16,51,19.80
2018,05,21,16,52,19.80
2018,05,21,16,53,19.70
2018,05,21,16,54,19.70
2018,05,21,16,55,19.70
2018,05,21,16,56,19.70
2018,05,21,16,57,19.70
2018,05,21,16,58,19.60
2018,05,21,16,59,19.60
2018,05,21,17,00,19.70
2018,05,21,17,01,19.70
2018,05,21,17,02,19.70
2018,05,21,17,03,19.80
2018,05,21,17,04,19.80
2018,05,21,17,05,19.80
2018,05,21,17,06,19.80
2018,05,21,17,07,19.70
2018,05,21,17,08,19.70
2018,05,21,17,09,19.80
2018,05,21,17,10,19.80
2018,05,21,17,11,19.80
2018,05,21,17,12,19.70
2018,05,21,17,13,19.70
2018,05,21,17,14,19.70
2018,05,21,17,15,19.70
2018,05,21,17,16,19.70
2018,05,21,17,17,19.70
2018,05,21,17,18,19.70
2018,05,21,17,19,19.70